Regional Weather Roundup
Issued by NWS

Home | Current Version | Previous Version | Text Only | Print | Product List | Glossary Off
Versions: 1 2 3 4 5 6 7 8 9 10 11 12 13 14 15 16 17 18 19 20 21 22 23 24 25 26 27 28 29 30 31 32 33 34 35 36 37 38 39 40 41 42 43 44 45 46 47 48 49 50

000
ASUS43 KDTX 250301
RWRMI
MICHIGAN HOURLY REGIONAL WEATHER ROUNDUP
NATIONAL WEATHER SERVICE DETROIT/PONTIAC MI
1100 PM EDT FRI MAR 24 2017

NOTE: "FAIR" INDICATES FEW OR NO CLOUDS BELOW 12,000 FEET WITH NO
SIGNIFICANT WEATHER AND/OR OBSTRUCTION TO VISIBILITY.

MIZ047>049-052>055-059>063-066>070-074>076-081>083-250400-
SOUTHEAST LOWER MICHIGAN

CITY           SKY/WX    TMP DP  RH WIND       PRES   REMARKS
ADRIAN         CLOUDY    62  53  72 SW7       30.03R
ALMA           CLOUDY    39  37  92 NE10G16   30.11R WCI  32
ANN ARBOR      CLOUDY    66  54  65 W6        30.03R
BAD AXE        CLOUDY    37  35  93 NE8       30.13R WCI  30
CARO           MOCLDY    37  35  91 N6        30.11R WCI  33
DETROIT CITY   CLOUDY    45  40  82 N18G24    30.09R
DETROIT        CLOUDY    49  41  74 NE20G31   30.07R
FLINT          MOCLDY    43  36  76 E13       30.09R
GROSSE ILE     CLOUDY    48  39  71 NE17G25   30.05R
HILLSDALE      CLOUDY    63  52  67 SW10G18   30.02S
HOWELL         CLOUDY    45  38  78 E12       30.07R

CITY           SKY/WX    TMP DP  RH WIND       PRES   REMARKS
JACKSON        CLOUDY    54  46  74 N8G17     30.05R
LAMBERTVILLE   CLOUDY    69  54  57 SW12G20   30.02S
LANSING        CLOUDY    43  36  76 NE12      30.08R
LAPEER         MOCLDY    40  35  83 E6        30.10S
MASON          CLOUDY    45  40  82 NE12      30.07R
MONROE         CLOUDY    66  55  68 SW12      30.01S
MT. CLEMENS    LGT RAIN  42  41  94 N8        30.06S
PONTIAC        CLOUDY    43  38  82 NE9       30.08R
PORT HOPE        N/A     35  34  96 NE8       30.12R WCI  29
PORT HURON     CLOUDY    41  36  81 N7        30.10R
TRI CITIES     CLOUDY    36  35  96 NE14      30.11F WCI  27
MIDLAND        CLOUDY    38  33  82 E14       30.12S WCI  30
TROY           CLOUDY    44  39  82 NE12G17   30.10R
SAGINAW HB     CLOUDY    36  32  87 NE7       30.11S WCI  30
$$
MIZ043>046-050>051-056>058-064>065-071>073-077>080-250400-
SOUTHWEST LOWER MICHIGAN

CITY           SKY/WX    TMP DP  RH WIND       PRES   REMARKS
BATTLE CREEK   CLOUDY    54  47  77 NE13      30.04R
BENTON HARBOR  LGT RAIN  45  43  93 CALM      30.02S FOG
BIG RAPIDS     CLOUDY    41  36  82 E7        30.09R
COLDWATER      CLOUDY    65  52  61 SW12G22   30.02R
FREMONT        MOCLDY    45  36  72 NE9       30.07R
HOLLAND        CLOUDY    56  46  69 NW5       30.04R
GRAND RAPIDS   CLOUDY    48  39  71 E15       30.07R
IONIA          MOCLDY    43  37  79 NE17G23   30.06S
KALAMAZOO      CLOUDY    63  46  54 N6        30.03R
LUDINGTON      CLOUDY    37  36  97 NE7       30.10R WCI  31
MARSHALL       CLOUDY    54  45  70 N9G16     30.03R
MOUNT PLEASANT CLOUDY    42  36  81 E9        30.10R
MUSKEGON       CLOUDY    50  39  66 NE10      30.06R
SOUTH HAVEN    MIX PCPN  49  47  90 SW8       30.02S
$$
MIZ016>042-250400-
NORTHERN LOWER MICHIGAN

CITY           SKY/WX    TMP DP  RH WIND       PRES   REMARKS
ALPENA         CLOUDY    34  34 100 N7        30.17R WCI  28
BEAVER ISLAND  CLOUDY    34  33  99 N6        30.20R WCI  29
BELLAIRE       FLURRIES  35  32  90 NE7       30.17R WCI  29
CADILLAC       CLOUDY    35  34  96 NE8       30.10R WCI  28
CHARLEVOIX     CLOUDY    34  34 100 NE7       30.20S WCI  28
FRANKFORT      LGT RAIN  35  32  88 NE9       30.12F WCI  28
GAYLORD        CLOUDY    34  31  88 NE9       30.14R FOG     WCI  27
GRAYLING       MIX PCPN  34  32  93 NE6       30.16R WCI  29
HARBOR SPRINGS CLOUDY    34  33  96 NE6       30.17S WCI  29
HOUGHTON LAKE  RAIN      35  33  92 NE12      30.12R WCI  27
MANISTEE       LGT RAIN  36  34  92 NE7       30.11S WCI  30
OSCODA         LGT SNOW  36  34  94 NE9       30.15R WCI  29
PELLSTON       CLOUDY    34  32  92 N8        30.18R WCI  27
ROGERS CITY    CLOUDY    34  33  95 N3          N/A
TRAVERSE CITY  LGT RAIN  36  33  89 N9        30.15R WCI  29
$$
MIZ007>008-015-250400-
EASTERN UPPER MICHIGAN

CITY           SKY/WX    TMP DP  RH WIND       PRES   REMARKS
KINROSS        CLOUDY    34  32  92 NE5       30.20R WCI  30
MACKINAC ISLAN CLOUDY    32  32 100 N6        30.19R FOG     WCI  27
NEWBERRY       CLOUDY    32  32  99 CALM      30.20R
S. S. MARIE    CLOUDY    38  31  76 CALM      30.20R
MUNISING         N/A     34  33  96 NE3       30.22R
$$
MIZ004>006-011>014-085-250400-
CENTRAL UPPER MICHIGAN

CITY           SKY/WX    TMP DP  RH WIND       PRES   REMARKS
MANISTIQUE     CLOUDY    32  32 100 N7        30.20R WCI  26
ESCANABA       CLOUDY    35  32  88 N3        30.21R
MENOMINEE        N/A    N/A N/A N/A MISG        N/A
SAWYER-GWINN   CLOUDY    33  32  98 NE9       30.21R FOG     WCI  25
$$
MIZ001>003-009>011-084-250400-
WESTERN UPPER MICHIGAN

CITY           SKY/WX    TMP DP  RH WIND       PRES   REMARKS
IRON MOUNTAIN  CLOUDY    35  29  78 N10       30.19R WCI  27
HOUGHTON       CLOUDY    34  25  69 NE7       30.24R WCI  28
COPPER HARBOR    N/A     35  28  75 E3        30.28R
IRONWOOD       CLOUDY    34  31  88 NE5       30.23R WCI  30
$$

ABBREVIATIONS USED IN REMARKS
   TC - TEMPERATURE IN CELSIUS
  WCI - WIND CHILL INDEX
   HX - HEAT INDEX
  VSB - VISIBILITY




USA.gov is the U.S. government's official web portal to all federal, state and local government web resources and services.